DW3871 Weather Reports


Display with metric or nautical units.
time (UTC)temp
F
wind
direction
speed
MPH
gust
MPH
rain 1hr
in
rain 24hr
in
rain mn
in
humidity
%
barometer
mb
20260503071153 58 138 9.0 12.0 0.00 0.07 0.05 1 1009.9
20260503070140 58 137 6.0 11.0 0.00 0.09 0.05 1 1009.8
20260503060112 58 138 6.0 12.0 0.00 0.11 0.05 1 1010.0
20260503054602 58 131 7.0 10.0 0.00 0.11 0.05 1 1010.0
20260503054102 58 148 6.0 9.0 0.00 0.11 0.05 1 1010.1
20260503053601 57 145 6.0 10.0 0.00 0.11 0.05 1 1010.1
20260503053101 57 138 6.0 10.0 0.00 0.11 0.05 1 1010.1
20260503052541 57 127 6.0 11.0 0.00 0.11 0.05 1 1009.9
20260503052030 57 135 8.0 11.0 0.00 0.11 0.05 1 1010.0
20260503051530 57 159 7.0 10.0 0.00 0.11 0.05 1 1010.0
20260503051029 57 127 6.0 10.0 0.00 0.11 0.05 1 1010.1
20260503050529 57 131 6.0 10.0 0.00 0.11 0.05 1 1010.1
20260503050030 57 145 6.0 10.0 0.00 0.11 0.05 1 1010.1
20260503045529 57 140 5.0 10.0 0.00 0.11 0.05 1 1010.2
20260503045024 57 134 6.0 10.0 0.00 0.11 0.05 1 1010.2
20260503044510 57 135 6.0 9.0 0.00 0.11 0.05 1 1010.2
20260503044009 57 143 5.0 7.0 0.00 0.11 0.05 1 1010.2
20260503043510 57 137 5.0 7.0 0.00 0.11 0.05 1 1010.2
20260503043006 57 137 6.0 7.0 0.00 0.11 0.05 1 1010.2
20260503042503 57 141 4.0 6.0 0.01 0.11 0.05 1 1010.3
20260503041502 57 164 3.0 6.0 0.02 0.11 0.05 1 1010.3
20260503041002 57 147 4.0 7.0 0.02 0.11 0.05 1 1010.2
20260503040504 57 131 5.0 7.0 0.03 0.11 0.05 1 1010.3
20260503040002 57 124 6.0 9.0 0.03 0.08 0.05 1 1010.4
20260503035501 57 128 6.0 10.0 0.04 0.08 0.05 1 1010.4
20260503035001 57 140 7.0 10.0 0.04 0.08 0.05 1 1010.4
20260503034430 57 143 6.0 10.0 0.04 0.08 0.05 1 1010.5
20260503033930 57 131 8.0 10.0 0.04 0.08 0.05 1 1010.4
20260503033430 57 128 6.0 10.0 0.04 0.08 0.05 1 1010.3
20260503032409 58 127 6.0 12.0 0.03 0.08 0.04 1 1010.7
20260503031909 58 127 8.0 12.0 0.02 0.08 0.03 1 1010.7
20260503031409 58 144 7.0 11.0 0.02 0.08 0.02 1 1010.8
20260503030909 58 161 8.0 12.0 0.01 0.08 0.02 1 1010.9
20260503030409 57 143 8.0 12.0 0.01 0.08 0.02 1 1011.2
20260503025909 57 137 6.0 11.0 0.01 0.07 0.02 1 1011.2
20260503025409 57 133 10.0 11.0 0.00 0.07 0.01 1 1011.3
20260503024909 57 123 5.0 6.0 0.00 0.07 0.01 1 1011.3
20260503024409 57 116 5.0 6.0 0.00 0.07 0.01 1 1011.2
20260503023909 57 137 5.0 6.0 0.00 0.07 0.01 1 1011.3
20260503023409 57 131 3.0 7.0 0.00 0.07 0.01 1 1011.3
20260503022410 57 133 3.0 5.0 0.00 0.07 0.01 1 1011.3
20260503021909 57 117 4.0 6.0 0.00 0.07 0.01 1 1011.4
20260503020909 57 144 4.0 7.0 0.00 0.07 0.01 1 1011.4
20260503020410 57 126 5.0 10.0 0.00 0.07 0.01 1 1011.3
20260503015910 57 134 6.0 10.0 0.00 0.07 0.01 1 1011.4
20260503015409 57 135 5.0 7.0 0.00 0.07 0.01 1 1011.4
20260503014909 57 147 5.0 10.0 0.00 0.07 0.01 1 1011.4
20260503014409 57 141 8.0 10.0 0.00 0.07 0.01 1 1011.4
20260503013409 57 109 5.0 7.0 0.00 0.07 0.01 1 1011.2
20260503012910 57 112 3.0 6.0 0.00 0.07 0.01 1 1011.2
20260503011912 57 119 5.0 7.0 0.00 0.07 0.01 1 1011.3
20260503011409 57 120 3.0 7.0 0.00 0.07 0.01 1 1011.2
20260503010409 57 137 4.0 6.0 0.00 0.07 0.01 1 1011.3
20260503005909 57 99 3.0 9.0 0.00 0.07 0.01 1 1011.4
20260503005410 57 140 5.0 9.0 0.00 0.07 0.01 1 1011.5
20260503004908 57 140 3.0 5.0 0.00 0.07 0.01 1 1011.5
20260503004409 57 107 2.0 3.0 0.00 0.07 0.01 1 1011.6
20260503003909 57 133 1.0 3.0 0.00 0.07 0.01 1 1011.6
20260503002909 57 134 2.0 5.0 0.00 0.07 0.01 1 1011.7
20260503002409 57 134 3.0 5.0 0.00 0.07 0.01 1 1011.8
20260503001910 57 119 4.0 6.0 0.00 0.07 0.01 1 1011.7
20260503001409 57 107 2.0 6.0 0.00 0.07 0.01 1 1011.7
20260503000910 57 140 4.0 5.0 0.00 0.07 0.01 1 1011.6
20260503000402 56 102 3.0 5.0 0.00 0.07 0.01 1 1011.7
20260502235401 56 126 4.0 5.0 0.00 0.07 0.01 1 1012.0
20260502234901 56 127 3.0 5.0 0.00 0.07 0.01 1 1012.1
20260502234401 56 138 3.0 4.0 0.00 0.07 0.01 1 1012.2
20260502233858 56 126 2.0 5.0 0.00 0.07 0.01 1 1012.3
20260502233355 56 143 3.0 5.0 0.00 0.07 0.01 1 1012.2
20260502232348 56 138 3.0 5.0 0.01 0.07 0.01 1 1012.1
20260502231840 56 138 3.0 5.0 0.01 0.07 0.01 1 1012.1
20260502230829 56 126 4.0 9.0 0.01 0.07 0.01 1 1012.2
20260502230330 56 141 4.0 9.0 0.01 0.07 0.01 1 1012.2
20260502225830 56 143 2.0 7.0 0.02 0.06 0.01 1 1012.2
20260502225330 57 137 4.0 11.0 0.02 0.06 0.01 1 1012.4
20260502224829 57 90 6.0 11.0 0.02 0.06 0.01 1 1012.4
20260502223829 57 97 5.0 12.0 0.02 0.06 0.01 1 1012.4
20260502223329 57 116 8.0 12.0 0.02 0.06 0.01 1 1012.5
20260502222330 58 73 6.0 11.0 0.01 0.06 0.00 1 1012.5
20260502221828 58 96 7.0 11.0 0.01 0.06 0.00 1 1012.5
20260502221328 58 81 5.0 11.0 0.01 0.06 0.00 1 1012.8
20260502220828 58 89 6.0 11.0 0.01 0.06 0.00 1 1012.6
20260502215309 58 354 2.0 10.0 0.00 0.06 0.06 1 1013.2
20260502214809 58 144 3.0 13.0 0.00 0.06 0.06 1 1013.5
20260502214308 58 116 9.0 13.0 0.00 0.06 0.06 1 1013.7
20260502213810 57 130 8.0 13.0 0.00 0.06 0.06 1 1013.8
20260502213308 57 147 7.0 12.0 0.00 0.06 0.06 1 1013.4
20260502211814 57 71 6.0 10.0 0.00 0.06 0.06 1 1012.9
20260502211309 57 69 5.0 7.0 0.00 0.06 0.06 1 1012.9
20260502210309 57 95 4.0 10.0 0.00 0.06 0.06 1 1013.0
20260502205809 57 83 5.0 10.0 0.00 0.06 0.06 1 1013.2
20260502205308 57 59 5.0 10.0 0.00 0.06 0.06 1 1013.3
20260502204809 57 102 6.0 11.0 0.00 0.06 0.06 1 1013.4
20260502203802 57 38 6.0 9.0 0.00 0.06 0.06 1 1013.6
20260502203302 56 86 6.0 9.0 0.00 0.06 0.06 1 1013.6
20260502202801 56 103 3.0 7.0 0.00 0.06 0.06 1 1013.6
20260502202304 56 78 5.0 11.0 0.00 0.06 0.06 1 1013.6
20260502201230 56 49 3.0 7.0 0.00 0.06 0.06 1 1013.8
20260502200729 56 86 4.0 7.0 0.00 0.06 0.06 1 1013.9
20260502200230 56 65 3.0 7.0 0.00 0.06 0.06 1 1014.1
20260502195722 56 88 5.0 9.0 0.00 0.06 0.06 1 1014.1
20260502194720 56 35 7.0 10.0 0.00 0.06 0.06 1 1014.0
20260502194209 56 14 6.0 10.0 0.00 0.06 0.06 1 1014.0
20260502193709 56 40 6.0 10.0 0.00 0.06 0.06 1 1014.0
20260502193209 56 37 6.0 9.0 0.00 0.06 0.06 1 1014.0
20260502192709 56 21 4.0 6.0 0.00 0.06 0.06 1 1014.0
20260502192204 56 30 5.0 9.0 0.00 0.06 0.06 1 1014.1
20260502191201 56 10 4.0 11.0 0.00 0.06 0.06 1 1014.1
20260502190701 56 16 7.0 11.0 0.00 0.06 0.06 1 1014.2
20260502190202 56 10 10.0 11.0 0.00 0.06 0.06 1 1014.1
20260502185702 56 10 8.0 11.0 0.00 0.06 0.06 1 1014.1
20260502185201 56 10 8.0 11.0 0.00 0.06 0.06 1 1014.2
20260502184658 56 10 9.0 11.0 0.00 0.06 0.06 1 1014.2
20260502184159 56 10 9.0 12.0 0.00 0.06 0.06 1 1014.2
20260502183136 56 10 9.0 11.0 0.00 0.06 0.06 1 1014.3
20260502182633 56 3 10.0 11.0 0.00 0.06 0.06 1 1014.2
20260502182131 56 8 9.0 10.0 0.00 0.06 0.06 1 1014.2
20260502181630 56 3 8.0 10.0 0.00 0.06 0.06 1 1014.3
20260502181129 56 347 8.0 10.0 0.00 0.06 0.06 1 1014.2
20260502180629 56 1 7.0 10.0 0.00 0.06 0.06 1 1014.2
20260502180127 56 5 8.0 9.0 0.00 0.06 0.06 1 1014.2
20260502164123 56 347 6.0 7.0 0.00 0.06 0.06 1 1015.3
20260502163609 56 339 5.0 6.0 0.00 0.06 0.06 1 1015.5
20260502163108 56 351 5.0 6.0 0.00 0.06 0.06 1 1015.5
20260502162108 56 337 5.0 6.0 0.00 0.06 0.06 1 1015.7
20260502161108 56 351 4.0 5.0 0.00 0.06 0.06 1 1015.8
20260502160607 56 341 4.0 6.0 0.00 0.06 0.06 1 1015.8
20260502160108 56 329 4.0 6.0 0.00 0.06 0.06 1 1015.8
20260502152108 57 291 5.0 6.0 0.00 0.06 0.06 1 1016.1
20260502151609 57 288 3.0 6.0 0.00 0.06 0.06 1 1016.2
20260502151108 56 284 5.0 6.0 0.00 0.06 0.06 1 1016.3
20260502150108 57 265 4.0 5.0 0.00 0.06 0.06 1 1016.3
20260502140110 56 251 8.0 10.0 0.00 0.06 0.06 1 1017.1
20260502130607 57 230 8.0 10.0 0.00 0.06 0.06 1 1017.3
20260502130109 57 223 7.0 10.0 0.00 0.06 0.06 1 1017.2
20260502123608 57 241 11.0 13.0 0.00 0.06 0.06 1 1017.5
20260502123109 57 238 11.0 14.0 0.00 0.06 0.06 1 1017.6
20260502122608 57 238 11.0 14.0 0.00 0.06 0.06 1 1017.7
20260502121602 57 241 13.0 16.0 0.00 0.06 0.06 1 1017.7
20260502121102 57 241 13.0 15.0 0.00 0.06 0.06 1 1017.8
20260502120602 57 234 12.0 16.0 0.00 0.06 0.06 1 1017.8
20260502115556 57 227 12.0 17.0 0.00 0.06 0.06 1 1017.8
20260502115054 57 253 12.0 16.0 0.00 0.06 0.06 1 1017.9
20260502114552 56 231 11.0 14.0 0.00 0.06 0.06 1 1017.9
20260502114042 56 222 13.0 14.0 0.00 0.06 0.06 1 1017.9
20260502113542 56 220 13.0 15.0 0.00 0.06 0.06 1 1017.9
20260502113040 57 227 12.0 15.0 0.00 0.06 0.06 1 1017.9
20260502112534 57 224 12.0 15.0 0.00 0.06 0.06 1 1018.0
20260502112033 56 226 12.0 15.0 0.00 0.06 0.06 1 1018.1
20260502111532 56 217 12.0 15.0 0.00 0.06 0.06 1 1018.0
20260502111031 57 224 12.0 14.0 0.00 0.06 0.06 1 1018.1
20260502110531 57 214 11.0 15.0 0.00 0.06 0.06 1 1018.0
20260502105526 57 223 7.0 13.0 0.00 0.06 0.06 1 1018.0
20260502105018 58 206 10.0 13.0 0.00 0.06 0.06 1 1018.0
20260502104507 58 212 10.0 13.0 0.00 0.06 0.06 1 1017.9
20260502104008 57 214 9.0 13.0 0.00 0.06 0.06 1 1018.0
20260502103507 57 217 9.0 13.0 0.00 0.06 0.06 1 1018.0
20260502103007 57 209 10.0 13.0 0.00 0.06 0.06 1 1018.1
20260502102506 57 212 8.0 14.0 0.00 0.06 0.06 1 1018.0
20260502102004 57 200 10.0 14.0 0.00 0.06 0.06 1 1018.2
20260502100504 57 223 10.0 13.0 0.00 0.06 0.06 1 1018.2
20260502091432 58 190 9.0 15.0 0.00 0.06 0.06 1 1018.1
20260502090929 58 209 12.0 15.0 0.00 0.06 0.06 1 1018.1
20260502090432 58 207 9.0 14.0 0.00 0.06 0.06 1 1018.1